This demonstration page uses our WeatherBlox Daily Observations layout. Learn more.

Left ArrowRight Arrow

38.20091, -84.87328

Hourly Observations for August 17, 2019

Temp ( °F °C ) Dew Point ( °F °C ) Humidity (%) Winds ( mph kmh ) Pressure ( in mb ) Visibility ( mi km ) Precip ( " mm )
12:53 am 00:53 Clear 73 22.8 65 18.3 76 76 Calm 29.96 1014 10 16 0.00 0.00
1:53 am 01:53 Clear 70 21.1 65 18.3 84 84 Calm 29.95 1014 10 16 0.00 0.00
2:53 am 02:53 Clear 70 21.1 65 18.3 84 84 Calm 29.95 1014 10 16 0.00 0.00
3:53 am 03:53 Clear 69 20.6 65 18.3 87 87 Calm 29.94 1014 10 16 0.00 0.00
4:53 am 04:53 Clear 68 20 64 17.8 87 87 Calm 29.93 1014 10 16 0.00 0.00
5:53 am 05:53 Clear 67 19.4 64 17.8 91 91 Calm 29.93 1014 10 16 0.00 0.00
6:53 am 06:53 Clear 67 19.4 64 17.8 91 91 Calm 29.95 1014 10 16 0.00 0.00
7:53 am 07:53 Sunny 70 21.1 66 18.9 87 87 Calm 29.98 1015 10 16 0.00 0.00
8:53 am 08:53 Sunny 74 23.3 67 19.4 79 79 SW 3 6 29.99 1016 10 16 0.00 0.00
9:53 am 09:53 Sunny 78 25.6 68 20 71 71 VRB 3 6 29.99 1016 10 16 0.00 0.00
10:53 am 10:53 Sunny 82 27.8 69 20.6 65 65 SSW 3 6 29.99 1016 10 16 0.00 0.00
11:53 am 11:53 Mostly Sunny 85 29.4 70 21.1 61 61 SSW 8 13 30.01 1016 7 11 0.00 0.00
12:53 pm 12:53 Partly Cloudy 86 30 68 20 55 55 WNW 7 11 30.00 1016 10 16 0.00 0.00
1:53 pm 13:53 Sunny 89 31.7 68 20 50 50 SW 6 9 29.98 1015 10 16 0.00 0.00
2:53 pm 14:53 Sunny 89 31.7 66 18.9 47 47 SW 5 7 29.96 1015 10 16 0.00 0.00
3:53 pm 15:53 Mostly Sunny 90 32.2 69 20.6 50 50 SE 3 6 29.94 1014 10 16 0.00 0.00
4:53 pm 16:53 Partly Cloudy 91 32.8 68 20 47 47 VRB 3 6 29.92 1013 10 16 0.00 0.00
5:53 pm 17:53 Mostly Cloudy 92 33.3 68 20 46 46 SE 8 13 29.92 1013 10 16 0.00 0.00
6:53 pm 18:53 Sunny 90 32.2 68 20 48 48 ESE 7 11 29.91 1013 10 16 0.00 0.00
7:53 pm 19:53 Sunny 87 30.6 69 20.6 55 55 SSW 7 11 29.92 1013 10 16 0.00 0.00
8:53 pm 20:53 Clear 84 28.9 69 20.6 61 61 S 7 11 29.91 1013 10 16 0.00 0.00
9:53 pm 21:53 Clear 81 27.2 69 20.6 67 67 SSW 3 6 29.93 1014 10 16 0.00 0.00
10:53 pm 22:53 Clear 81 27.2 69 20.6 67 67 S 6 9 29.93 1014 10 16 0.00 0.00
11:53 pm 23:53 Clear 78 25.6 69 20.6 74 74 SSW 5 7 29.95 1014 10 16 0.00 0.00

Powered by AerisWeather